Wind_Speed
45 45 46 46 46 47 46 45 44 45 45 45 44 43 40 39 40 41 41 40 39 38 38 39 41 43 44 44 43 41 39 39 41 39 33 30 29 27 27 29 30 31
45 45 45 47 48 48 46 45 44 43 44 44 44 43 42 41 40 40 39 38 37 37 39 41 44 45 44 42 40 41 41 41 41 38 32 29 27 26 26 26 25 26
46 46 46 48 49 49 48 47 45 44 43 43 43 42 42 42 42 42 39 36 37 39 42 44 45 44 43 42 43 44 42 41 39 35 32 29 27 26 26 26 25 25
47 47 48 49 49 49 49 47 45 45 44 43 42 42 44 45 45 44 41 38 39 41 43 44 44 43 44 45 47 46 42 40 37 34 32 29 27 27 28 28 28 28
48 46 46 48 49 50 51 47 44 43 44 43 44 46 47 48 47 44 40 40 41 41 42 43 45 47 49 50 49 46 42 40 37 34 32 29 28 29 29 29 29 30
47 44 43 45 48 51 53 53 50 47 46 45 47 49 51 50 47 43 41 41 42 43 44 45 48 51 52 50 48 46 42 38 35 33 31 29 29 30 31 31 31 31
45 43 41 42 45 49 52 55 56 56 54 52 50 50 49 48 46 45 44 44 45 46 47 48 50 52 51 50 48 45 40 36 34 32 31 31 31 31 32 32 32 33
42 42 40 41 43 47 50 53 56 59 60 59 56 53 50 49 48 48 48 49 50 50 51 51 52 53 52 51 47 42 38 36 35 34 34 34 33 32 32 33 33 35
38 39 38 38 39 43 48 53 56 58 59 60 60 58 56 55 54 53 53 53 52 52 52 52 53 52 50 47 44 41 39 38 38 38 37 35 34 33 33 34 35 36
37 37 36 35 36 40 47 53 57 58 59 60 60 59 58 57 55 54 53 52 51 50 50 50 49 48 46 44 43 42 41 41 40 39 37 35 34 34 35 36 36 34
39 40 40 37 35 38 45 50 53 56 57 58 58 56 54 53 52 51 50 49 48 47 46 46 46 45 45 44 44 44 43 43 42 39 36 35 35 35 36 36 34 32
39 38 39 38 34 36 44 49 50 52 54 55 56 54 52 49 48 48 47 46 45 45 46 47 47 46 46 45 46 45 45 43 41 38 36 35 35 35 35 35 33 32
36 33 33 36 36 40 46 50 50 52 53 53 53 53 52 50 48 48 49 50 50 50 49 48 47 47 47 47 47 46 44 42 39 37 36 34 35 35 35 35 34 33
37 34 32 34 37 41 48 53 54 55 54 54 54 54 53 52 49 49 51 54 55 54 52 49 48 48 48 48 47 46 43 40 38 37 35 34 35 37 37 37 37 36
37 36 35 36 36 39 45 52 54 55 56 57 57 56 55 54 52 51 53 56 57 56 53 51 50 50 49 48 47 44 41 39 37 37 36 36 37 39 40 40 39 38
38 36 36 39 39 41 47 52 52 51 52 54 54 54 53 53 51 51 53 56 56 54 52 50 50 49 48 47 45 42 40 39 38 38 38 38 40 41 42 41 41 41
37 38 39 43 44 45 50 53 51 50 51 51 50 51 51 51 50 51 53 54 52 50 49 48 48 47 47 46 44 43 42 41 40 40 40 41 41 42 43 43 43 42
38 41 43 46 46 46 49 51 50 50 52 53 53 52 52 52 52 52 52 51 49 49 48 48 47 47 46 46 45 45 44 43 42 42 43 43 43 44 45 45 44 42
41 43 44 44 44 46 51 53 51 50 51 54 54 54 54 53 53 52 51 50 50 50 49 49 48 48 48 48 47 46 45 44 44 44 44 45 46 47 47 46 44 42
43 45 46 45 44 47 52 54 52 52 53 54 55 56 56 55 53 53 51 50 50 50 49 49 48 48 48 48 48 47 45 45 45 45 47 48 49 49 48 48 46 44
47 46 48 48 47 48 50 50 49 50 51 51 53 55 56 55 54 52 51 50 50 49 48 48 48 48 48 48 47 46 45 45 46 47 49 51 52 51 51 50 49 48
55 52 50 50 50 49 49 49 49 50 51 53 55 56 56 55 53 50 49 49 49 48 48 48 48 49 48 48 47 47 47 48 49 50 52 54 54 54 53 52 51 52
62 59 55 52 52 52 52 52 52 53 55 55 56 57 57 56 53 51 50 49 49 49 49 49 49 49 48 48 49 49 50 52 53 55 56 56 55 54 53 53 53 55
65 64 60 56 54 55 55 55 54 54 55 55 56 57 57 55 55 53 51 50 50 49 49 49 49 50 51 52 53 54 56 58 58 58 58 57 57 56 55 55 56 59
65 66 64 60 57 57 57 57 56 56 57 58 58 57 56 55 55 54 52 51 51 50 51 52 54 55 56 58 59 60 60 61 61 60 60 60 59 58 58 59 61 63
65 66 66 64 62 60 60 61 60 60 59 59 59 58 57 57 57 56 55 55 55 55 56 58 60 60 61 61 62 62 62 62 62 63 63 63 62 61 62 63 65 67
Wind_Direction
244 244 245 248 250 253 256 259 260 259 259 259 260 261 261 258 256 258 262 268 274 275 270 263 259 262 270 278 284 288 292 297 304 303 296 294 297 301 304 301 298 297
244 244 244 246 250 253 257 261 262 260 260 259 260 262 261 259 259 262 267 270 270 267 262 259 262 268 274 279 285 290 294 298 302 298 290 289 291 296 302 303 302 301
246 245 245 246 248 250 254 258 258 256 258 260 261 262 259 257 261 266 268 265 261 260 259 261 267 271 273 279 287 294 297 298 299 292 284 283 285 290 297 300 300 300
247 246 246 246 247 249 251 255 256 255 257 260 261 260 258 259 264 269 267 263 261 262 263 266 269 270 274 281 289 295 296 296 294 287 280 279 280 286 292 294 296 298
247 246 247 246 246 248 249 250 254 257 259 260 260 260 261 263 267 269 269 267 265 264 264 267 268 271 277 283 289 293 293 291 288 281 278 278 279 283 287 291 293 296
246 246 249 249 246 246 247 248 250 254 256 257 258 259 261 265 267 267 268 266 264 262 261 262 266 272 278 284 288 290 287 284 281 277 277 279 280 282 285 288 291 293
245 246 251 254 251 247 247 248 250 252 254 256 257 258 260 262 263 264 265 263 263 263 263 263 267 272 278 283 286 284 280 277 276 276 279 281 282 282 283 286 288 293
244 246 252 258 257 251 247 248 250 252 254 256 256 256 258 260 261 263 264 263 264 265 265 265 268 272 277 280 280 276 273 273 275 278 282 284 283 282 282 283 287 292
245 245 251 257 259 257 252 251 251 252 254 255 256 258 260 263 264 265 265 264 265 266 265 266 268 271 274 275 273 271 271 273 277 281 284 284 282 281 280 282 287 292
247 243 243 249 259 262 258 255 254 254 255 257 259 261 263 264 265 265 264 263 264 265 265 266 267 269 270 270 269 269 272 275 279 282 283 281 280 280 280 284 288 292
248 242 239 246 256 258 256 256 256 256 257 258 259 260 262 264 264 262 261 261 261 263 263 264 265 266 267 267 268 270 273 276 279 281 280 279 278 279 282 286 289 291
243 243 241 244 242 240 246 253 255 255 256 257 259 260 261 263 263 261 259 260 261 262 262 263 264 265 266 267 268 271 273 276 278 279 278 278 278 280 284 286 288 290
237 238 239 240 233 230 240 248 251 253 255 255 257 259 261 262 262 262 262 264 264 264 264 265 265 266 267 269 270 272 274 275 276 277 278 279 279 281 285 287 289 291
235 233 232 235 233 233 240 246 249 251 253 254 256 258 259 260 261 262 263 264 265 265 265 265 266 268 270 271 272 273 273 273 274 275 278 279 280 283 287 290 292 293
231 233 231 230 229 230 239 246 249 251 253 255 256 257 258 258 259 261 261 261 262 263 264 265 267 269 271 272 272 270 270 272 273 275 277 280 282 286 290 292 294 294
226 230 229 229 228 229 236 243 246 248 251 253 255 257 258 259 259 259 259 260 261 263 265 266 267 269 271 270 269 268 269 272 274 276 279 282 285 288 291 293 294 294
225 228 227 227 229 232 236 240 241 244 248 252 255 257 259 259 259 257 257 260 262 264 265 266 268 269 269 268 266 267 271 273 275 278 281 283 286 288 290 292 293 293
224 227 227 226 228 232 236 238 240 243 248 252 256 258 259 259 258 257 258 260 261 262 265 267 268 267 266 265 266 269 272 274 276 278 281 283 285 287 288 291 292 291
219 223 223 224 228 233 237 240 243 246 250 253 256 258 258 258 258 258 258 258 259 262 265 267 267 265 264 265 267 269 272 274 276 278 279 281 284 286 288 289 289 288
216 219 219 221 229 236 239 242 246 249 253 255 256 257 257 258 259 259 258 258 260 262 264 264 263 263 263 265 267 269 271 273 275 277 279 281 284 286 287 287 285 284
213 217 218 221 229 236 239 242 245 249 251 252 253 256 259 261 262 262 261 261 261 261 260 259 259 260 263 265 268 269 271 273 275 277 279 282 285 286 285 284 283 282
213 214 217 222 228 234 239 242 245 250 252 252 253 257 261 263 264 264 263 261 260 258 256 256 258 261 263 266 268 269 271 273 275 276 279 282 284 284 283 282 281 281
215 215 218 223 229 235 241 245 249 253 255 255 256 257 260 262 263 263 262 260 257 256 256 257 260 262 264 265 267 269 271 273 274 276 279 281 282 282 281 280 280 282
217 219 221 224 229 234 240 243 247 250 254 256 256 256 257 259 260 260 260 259 257 256 257 258 259 261 264 267 269 270 272 273 275 277 278 279 280 280 279 279 280 284
221 223 225 226 229 233 237 240 243 248 252 254 254 253 254 255 256 257 258 257 256 257 258 260 262 264 266 268 270 271 272 274 275 276 278 279 280 280 279 280 282 285
222 224 226 228 231 235 239 241 243 247 250 251 252 252 252 252 253 254 255 255 256 258 261 263 265 267 268 269 271 272 272 274 275 277 279 280 280 280 281 282 283 285
Height
10674 10676 10678 10680 10681 10682 10683 10684 10685 10686 10686 10687 10687 10689 10691 10693 10694 10695 10696 10696 10696 10696 10696 10696 10696 10696 10697 10696 10696 10696 10695 10695 10693 10692 10692 10691 10690 10689 10689 10687 10687 10687
10669 10671 10673 10675 10676 10678 10679 10680 10681 10681 10681 10682 10683 10685 10687 10688 10690 10691 10691 10692 10692 10693 10693 10692 10692 10692 10692 10692 10692 10692 10691 10691 10690 10689 10689 10688 10686 10686 10686 10684 10684 10683
10665 10666 10669 10671 10672 10674 10675 10676 10676 10677 10677 10678 10680 10681 10683 10684 10686 10687 10687 10688 10688 10688 10688 10688 10688 10688 10688 10688 10687 10687 10687 10686 10686 10686 10686 10685 10683 10683 10683 10681 10680 10680
10660 10662 10664 10666 10668 10670 10671 10672 10672 10672 10673 10675 10676 10678 10679 10681 10682 10683 10683 10683 10683 10683 10684 10684 10683 10683 10683 10683 10683 10683 10683 10682 10682 10682 10682 10682 10681 10680 10680 10679 10677 10677
10654 10657 10660 10662 10664 10665 10667 10668 10668 10668 10669 10671 10672 10674 10675 10676 10677 10678 10678 10679 10679 10679 10679 10679 10679 10679 10679 10679 10679 10679 10678 10678 10678 10678 10678 10678 10678 10677 10676 10675 10674 10673
10647 10651 10654 10657 10659 10661 10662 10663 10663 10664 10665 10666 10668 10669 10670 10671 10672 10673 10674 10674 10674 10674 10675 10675 10675 10675 10675 10675 10675 10675 10674 10673 10673 10674 10674 10675 10674 10674 10673 10672 10671 10670
10642 10645 10649 10651 10654 10656 10658 10658 10659 10660 10661 10662 10663 10665 10665 10667 10668 10668 10669 10669 10670 10670 10670 10671 10671 10671 10671 10670 10670 10671 10670 10669 10669 10670 10670 10671 10671 10670 10669 10668 10667 10666
10638 10641 10644 10646 10648 10650 10652 10653 10654 10655 10656 10657 10658 10660 10661 10662 10663 10664 10664 10664 10664 10665 10665 10666 10666 10666 10666 10666 10666 10666 10666 10666 10665 10666 10666 10666 10666 10666 10665 10664 10662 10661
10635 10638 10641 10643 10644 10646 10647 10647 10648 10650 10651 10651 10653 10654 10655 10657 10658 10659 10659 10659 10659 10659 10660 10661 10661 10662 10661 10661 10661 10661 10662 10662 10661 10662 10662 10662 10662 10662 10661 10660 10658 10657
10632 10635 10638 10641 10642 10643 10642 10641 10643 10645 10645 10646 10647 10649 10650 10651 10653 10653 10654 10654 10654 10655 10655 10655 10656 10656 10656 10656 10656 10657 10657 10657 10657 10657 10658 10657 10657 10658 10657 10655 10654 10653
10627 10631 10635 10639 10641 10639 10637 10635 10637 10638 10639 10640 10641 10643 10644 10646 10648 10648 10649 10649 10649 10650 10649 10649 10650 10651 10651 10652 10652 10652 10652 10652 10652 10653 10653 10652 10652 10652 10652 10651 10650 10650
10622 10627 10633 10636 10637 10636 10632 10630 10631 10632 10633 10634 10635 10637 10639 10641 10643 10643 10643 10644 10644 10644 10644 10644 10645 10646 10646 10647 10647 10647 10647 10647 10647 10647 10647 10648 10647 10647 10647 10646 10647 10647
10620 10625 10630 10631 10632 10632 10628 10624 10625 10626 10627 10629 10630 10631 10633 10635 10637 10638 10639 10638 10637 10637 10638 10639 10640 10640 10641 10641 10641 10641 10642 10642 10642 10642 10642 10643 10642 10641 10642 10642 10643 10642
10620 10623 10626 10626 10627 10627 10623 10618 10619 10620 10622 10624 10624 10625 10628 10630 10632 10634 10633 10630 10629 10631 10633 10635 10635 10635 10635 10636 10636 10636 10636 10636 10636 10636 10637 10638 10637 10636 10636 10637 10638 10637
10616 10618 10620 10620 10621 10622 10617 10612 10613 10616 10617 10617 10617 10620 10622 10624 10628 10629 10626 10622 10621 10624 10628 10630 10630 10630 10630 10630 10630 10631 10631 10631 10631 10631 10632 10633 10632 10631 10630 10631 10632 10631
10610 10613 10615 10615 10617 10617 10610 10605 10608 10611 10611 10611 10612 10614 10616 10618 10622 10621 10617 10614 10616 10620 10623 10624 10624 10625 10624 10624 10625 10625 10625 10625 10625 10625 10626 10627 10626 10625 10624 10625 10625 10625
10605 10607 10608 10609 10611 10611 10603 10599 10602 10605 10605 10605 10607 10608 10609 10611 10613 10612 10609 10609 10613 10615 10616 10617 10618 10619 10618 10618 10619 10619 10620 10620 10620 10620 10621 10621 10620 10619 10618 10619 10619 10618
10599 10601 10601 10602 10604 10603 10598 10595 10597 10599 10600 10600 10600 10601 10601 10602 10604 10605 10605 10607 10608 10609 10609 10611 10612 10612 10612 10613 10613 10613 10614 10614 10615 10615 10615 10615 10614 10613 10613 10614 10614 10612
10592 10593 10595 10597 10598 10596 10593 10591 10593 10594 10594 10593 10593 10593 10593 10594 10597 10599 10601 10602 10603 10603 10604 10604 10605 10605 10606 10607 10607 10608 10609 10609 10609 10609 10608 10608 10609 10608 10608 10608 10608 10607
10586 10587 10589 10591 10591 10588 10586 10587 10588 10588 10587 10587 10587 10586 10587 10589 10590 10592 10595 10597 10597 10597 10598 10597 10598 10598 10599 10600 10601 10602 10603 10603 10603 10603 10601 10602 10603 10603 10602 10601 10601 10601
10579 10580 10582 10583 10582 10581 10581 10582 10583 10582 10582 10582 10582 10581 10581 10583 10584 10586 10589 10590 10590 10591 10591 10590 10591 10592 10592 10593 10595 10596 10596 10596 10596 10596 10595 10596 10597 10598 10596 10595 10594 10593
10572 10572 10574 10574 10575 10575 10576 10577 10577 10577 10576 10577 10577 10576 10576 10577 10578 10580 10581 10582 10583 10583 10583 10583 10584 10585 10586 10587 10588 10589 10589 10589 10589 10589 10589 10590 10591 10591 10590 10589 10587 10585
10566 10566 10566 10567 10568 10570 10571 10571 10572 10571 10570 10571 10572 10572 10572 10572 10573 10573 10573 10574 10574 10575 10576 10577 10578 10579 10580 10581 10582 10582 10582 10582 10582 10582 10583 10584 10585 10585 10584 10583 10581 10578
10560 10560 10560 10561 10562 10564 10564 10565 10565 10564 10563 10565 10566 10566 10566 10567 10566 10566 10567 10567 10567 10568 10570 10572 10573 10574 10574 10574 10574 10575 10575 10574 10575 10576 10577 10578 10578 10577 10576 10575 10573 10571
10554 10553 10554 10555 10556 10556 10556 10557 10558 10558 10557 10558 10558 10560 10561 10561 10560 10560 10561 10561 10561 10563 10565 10566 10567 10567 10567 10567 10567 10567 10567 10567 10567 10568 10570 10571 10570 10569 10568 10567 10566 10564
10544 10545 10547 10548 10549 10548 10548 10549 10551 10552 10551 10551 10552 10553 10554 10554 10554 10555 10555 10555 10556 10558 10560 10560 10560 10560 10560 10559 10559 10559 10559 10559 10559 10560 10562 10563 10562 10561 10559 10558 10557 10556